Timeline UpdatesTrip UpdatesNews PostsPvt PostsTravel TipsAdmin PostsConv PostsFollowed PostsChat RequestsBlog PostsPNR Posts

Disclaimer
Search
 
 
Mon Jul 28, 2014 11:46:08 ISTHomeTrainsΣChainsAtlasPNRForumGalleryNewsFAQTripsMembersLoginFeedback
No Recent News for this Train
Other Trains in the News **new
Latest...
.
Tue Aug 14, 2012 (11:48AM)
⇐ Return Journey: Train# 51153

51154/Bhusaval Mumbai Passenger (UnReserved)

Sep 11 2013 (11:12PM)
Change Departure Station:
Change Arrival Station:
Post a Train Travel TipPost a Train Travel Tip **new
Post a Comment/Question/Picture/VideoPost a Comment/Question/Picture/Video
Pantry/Catering
✕ NO Pantry Car
✕ NO Catering
RSA - Rake Sharing
No RSA.
Rake/Coach Composition
Entry# 145371 Author: ® राहुल कुमार जैन ; Engine, SLR, GS, GS, GS, GS, GS, GS, GS, GS, GS, GS, GS, GS, SLR= 14 coach
Loco
BSL-IGP : WAP-4 BSL, IGP-CSTM : WCAM-3 KYN.
News    PNR    Forum    Time-Table    Availability    Fare Chart    Map    Arr/Dep History    Trips    Gallery    ΣChains    X/O    Timeline    
Travel Time: 0h 52m    3 halts    Distance: 45 km    Avg Speed: 51 km/hr
Type: Passenger
Zone: CR/Central
Departs @ 07:05 (Avg 13m late)
Platform# 5
SMTWTFS
Bhusaval Junction/BSL 
Arrives @ 07:57 (Avg 59m late)
Platform# ???
SMTWTFS
Mhasavad/MWD 

3 halts. 4 intermediate Stations between Bhusaval Junction and Mhasavad

Hide intermediate Stations  Show Old Time-Table

#CodeStation NameX/OArrivesAvgDepartsAvgHaltPFDay#KmSpeedElevZoneAddress
1BSL»Bhusaval Junction (8)»  -07:05+13510.047208mCRBhusaval 425201, Maharashtra
2BDIBhadli (2)  07:21+3207:22+321m--112.677211mCRBhadli, Maharashtra
2.1TRWTarsod  07:27-07:27-  119.4 77206mCRAsoda - Tarsod Road, Maharashtra
3JLJalgaon Junction (4)  07:31+2707:34+333m2124.154213mCRJalgaon 425001, Maharashtra
4SSShirsoli (2)X  07:47+4607:48+581m--135.962211mCRShirsoli, Maharashtra
5MWD•Mhasavad (3)•  07:57+5907:58+1:001m--145.271220mCRMhasavad, Maharashtra
6MYJMaheji (2)  08:08+1:0008:09+1:091m--157.063247mCRJalgaon, Maharashtra
7PHQPardhande (2)XO  08:16+1:0908:17+1:091m--164.434243mCRPardhande, Maharashtra
8PCPachora Junction (4)O  08:30+5608:35+1:015m--171.826264mCRPachora 424201, Maharashtra
9GAAGalan (2)  08:59+5809:00+1:101m--182.356282mCRGalan, Maharashtra
10NGDNagardevla (2)  09:09+1:1009:10+1:111m--190.845280mCRNagardevla, Maharashtra
11KJKajgaon (3)O  09:19+1:0909:20+1:101m--197.466297mCRKajgaon, Maharashtra
12VGLVaghli (2)  09:29+1:1209:30+1:151m--1107.356331mCRVaghli, Maharashtra
13CSNChalisgaon Junction (3)  09:40+5709:45+1:005m--1116.752352mCRChalisgaon 424101, Maharashtra
14HPRHirapur (2)  09:54+1:2209:55+1:251m--1124.5135373mCRHirapur, Maharashtra
15RHNERohini (2)X  09:59+1:5010:00+1:501m--1133.531422mCRRohini, Maharashtra
16NINaydongri (2)X  10:09+1:2610:10+1:281m--1138.265427mCRNaydongri, Maharashtra
17PKEPimpar Khed (2)X  10:19+1:2910:20+1:311m--1148.046462mCRPimpar Khed, Maharashtra
18NGNNandgaon (3)X  10:34+1:3110:35+1:351m--1158.897476mCRNandgaon, Maharashtra
19PJNPanjhan (2)  10:39+1:4010:40+1:401m--1165.336514mCRPanjhan, Maharashtra
20HSLHisvahal (2)  10:49+1:4110:50+1:431m--1170.851540mCRHisvahal, Maharashtra
21PNVPanevadi (2)X  10:59+1:4311:00+1:471m--1178.429561mCRPanevadi, Maharashtra
22MMRManmad Junction (6)X  11:12+1:2211:15+1:393m31184.253580mCRManmad 423104, Maharashtra
23SUMSummit (2)  11:29+2:1811:30+2:181m21196.652632mCRSummit, Maharashtra
24LSLasalgaon (3)X  11:44+2:1411:45+2:201m--1208.766592mCRLasalgaon, Maharashtra
25UGNUgaon (2)X  11:54+2:2011:55+2:211m21218.647568mCRUgaon, Maharashtra
26NRNiphad (3)XO  12:04+2:1812:05+2:191m21225.640550mCRNashik, Maharashtra
27KBSNKasbe Sukene (3)O  12:14+2:1712:15+2:221m--1231.645548mCRKasbe Sukene, Maharashtra
28KWKhervadi (2)  12:24+2:2012:25+2:211m21238.347553mCRKherwadi, Maharashtra
29ODHAOdha (2)O  12:34+2:2012:35+2:231m21245.446571mCRDist. Nashik, Maharashtra
30NKNasik Road (3)  12:50+1:4513:10+1:4320m31257.025563mCRNashik 422101, Maharashtra
31DVLDevlali (3)  13:24+2:0613:25+2:111m21262.732561mCRDist. Nashik 422401, Maharashtra
32LTLahavit (1)X  13:39+2:1813:40+2:211m11270.383587mCRWadhiware, Maharashtra
33AVAsvali (2)X  13:49+2:2113:50+2:261m--1282.757578mCRAsvali, Maharashtra
34PIPadli (1)X  13:59+2:2414:00+2:251m11291.236591mCRNational Highway 3, Maharashtra
35GOGhoti (2)XO  14:14+2:1314:15+2:151m--1299.56581mCRGhoti, Maharashtra
36IGPIgatpuri (4)X15:40+1:1915:45+1:325m--1307.618589mCRIgatpuri 422403, Maharashtra
37TGR2Block & Catch Siding Cabin 2X  16:09+3:0216:10+3:021m--1314.726473mCRNational Highway 3, Maharashtra
38TGR3Block & Catch Siding Cabin 3X  16:18+3:1016:20+3:102m--1318.216365mCRNH-3, Maharashtra
39KSRAKasara (4)X  16:34+1:2616:35+1:321m--1322.031290mCRDist. Thane 421602, Maharashtra
40OMBOombermaliX  16:48+1:2916:49+1:301m--1328.879248mCROombermali, Maharashtra
41KEKhardi (2)  16:54+1:3116:55+1:311m--1335.362232mCRKhardi, Maharashtra
42THSThansit  17:01+1:3117:02+1:311m--1341.571184mCRNational Highway 3, Maharashtra
43ATGAtgaon (2)X  17:07+1:3217:08+1:341m--1347.449147mCRAtgaon, Maharashtra
44ASOAsangaon (3)X  17:20+1:3217:21+1:351m--1357.24577mCRDist. Thane, Maharashtra
45VSDVasind (2)X  17:29+1:3417:30+1:391m--1363.23332mCRVasind, Maharashtra
46KDVKhadavli (3)XO  17:44+1:3317:45+1:441m--1370.81023mCRKhadavli, Maharashtra
47TLATitwala (3)  18:29+1:1118:30+1:111m--1378.44117mCRTitwala, Maharashtra
48ABYAmbivli (2)  18:37+2:3718:38+2:371m21383.23622mCRAmbivli, Maharashtra
49SHADShahad (2)  18:43+2:3918:44+2:391m21386.2-12mCRUlhasnagar, Maharashtra
50KYNKalyan Junction (8)X  18:45+1:0618:50+1:055m51389.45310mCRKalyan 421301, Maharashtra
50.1THKThakurli (2)  18:54-18:54-  1393.0 5314mCRThakurli, Maharashtra
50.2DIDombivli (5)  18:56-18:56-  1394.4 5311mCRDombivli, Maharashtra
50.3KOPRKopar (4)  18:57-18:57-  1395.7 530mCRKopar, Maharashtra
50.4DIVADiva Junction (6)X  19:02-19:02-  1400.0 533mCRJn Pt TNA/PNVL/KYN/BSR Diva, Maharashtra
50.5MBQMumbra (2)  19:05-19:05-  1402.6 538mCRMumbra, Maharashtra
50.6KLVAKalva (2)  19:10-19:10-  1407.1 535mCRKalva, Maharashtra
51TNAThane (10)  19:13+1:1819:15+1:162m61409.65810mCRThane, Maharashtra
51.1MLNDMulund (4)X  19:18-19:18-  1412.2 5812mCRMumbai, Maharashtra
51.2NHUNahur (2)  19:20-19:20-  1414.4 585mCRMumbai, Maharashtra
51.3BNDBhandup (4)  19:22-19:22-  1416.0 587mCRMumbai 400078, Maharashtra
51.4KJMGKanjur Marg (2)  19:24-19:24-  1417.9 585mCRMumbai, Maharashtra
51.5VKVikhroli (4)  19:25-19:25-  1419.8 5810mCRMumbai, Maharashtra
51.6GCGhatkopar (4)  19:29-19:29-  1423.4 5811mCRMumbai 400086, Maharashtra
51.7VVHVidyavihar (2)  19:31-19:31-  1424.8 588mCRMumbai, Maharashtra
51.8LTTMumbai Lokmanya Tilak Terminus (5)X  19:32-19:32-  1426.1 587mCRMumbai, Maharashtra
51.9CLAKurla Junction (8)  19:33-19:33-  1427.2 588mCRMumbai, Maharashtra
51.10SINMumbai Sion (4)  19:36-19:36-  1429.8 587mCRMumbai, Maharashtra
51.11MTNMumbai Matunga (4)  19:39-19:39-  1432.5 587mCRMumbai, Maharashtra
52DRMumbai Dadar Central (8)  19:40+5619:45+565m61433.9177mCRMumbai 400014, Maharashtra
52.1PRMumbai Parel (4)X  19:49-19:49-  1434.9 176mCRMumbai, Maharashtra
52.2CRDMumbai Currey Road (2)  19:55-19:55-  1436.7 175mCRMumbai, Maharashtra
52.3CHGMumbai Chinchpokli (2)  19:58-19:58-  1437.5 176mCRMumbai, Maharashtra
52.4BYByculla (4)X  20:02-20:02-  1438.6 179mCRMumbai 400027, Maharashtra
52.5SNRDMumbai Sandhurst Road (4)  20:08-20:08-  1440.5 179mCRMumbai, Maharashtra
52.6MSDMumbai Masjid (4)  20:12-20:12-  1441.6 1710mCRMumbai, Maharashtra
53CSTMMumbai CST (18)  20:15+1:08-111442.5-10mCRMumbai 400001, Maharashtra
Scroll to Top
Scroll to Bottom